Temp
18 18 18 18 18 18 18 18 18 18 18 19 19 19 19 19 19 19 19 19 19 20 20 20 21 21 20 21 20 20 20 21 20 19 18 17 16 17 18 19 20 21 21 22 22 22 23 23 22 21 23 21 19 19 18 16 16 18 22 22 21 20 19 19 19 18 18 17 14 12 12 15 15 11 10 10 10 11 10 10 10 10 9 10 9 7 6 6
18 18 18 18 18 18 18 18 18 18 18 19 19 19 19 19 19 19 19 19 20 20 20 20 21 21 21 21 21 21 20 21 21 19 18 17 17 18 19 20 20 21 21 22 22 22 23 23 21 21 22 21 18 19 19 17 17 18 20 21 21 20 17 16 17 17 16 17 15 13 12 14 15 13 11 12 13 11 11 12 11 10 11 11 9 7 6 6
18 18 18 18 18 18 18 18 18 19 19 19 19 19 19 19 19 19 19 20 20 20 20 20 20 21 21 21 21 21 21 21 21 18 18 18 18 19 19 20 21 21 21 22 22 22 22 22 21 21 22 21 18 19 19 18 17 16 18 22 20 16 15 13 14 15 14 15 15 13 11 12 13 12 11 12 13 11 12 14 12 11 12 13 12 9 6 6
18 18 18 18 18 19 19 19 19 19 19 19 19 19 19 19 19 19 20 20 20 20 20 20 20 20 21 21 21 21 21 22 20 17 18 18 18 19 20 20 20 21 21 21 22 22 22 21 20 20 21 20 18 18 18 16 16 17 17 20 17 14 16 13 13 13 11 13 15 13 11 11 12 11 11 12 13 13 14 15 14 14 14 14 14 10 7 7
18 18 18 19 19 19 19 19 19 19 19 19 19 19 20 20 20 20 20 20 20 20 20 20 20 20 20 21 21 20 21 22 19 17 18 18 18 19 20 20 20 21 21 21 21 21 22 21 21 20 20 20 18 18 17 14 15 16 14 15 14 14 16 13 11 11 10 12 13 12 12 12 11 10 11 12 13 16 16 15 14 15 16 15 13 10 8 8
18 18 18 19 19 19 19 19 19 19 19 19 19 19 20 20 20 20 20 20 20 20 20 21 21 21 20 21 21 21 21 21 17 17 18 18 18 19 20 20 20 20 20 21 21 21 21 21 21 20 19 18 17 18 17 13 14 17 15 13 13 13 14 12 10 9 9 12 13 12 13 12 11 11 12 11 13 16 14 12 12 13 13 12 11 10 8 8
18 18 18 19 19 19 19 19 19 19 19 19 19 20 20 20 19 20 20 20 20 20 20 21 21 21 21 21 21 20 20 18 16 17 17 18 19 20 20 19 20 20 20 20 21 21 21 21 21 18 18 18 17 16 15 14 15 17 16 13 12 12 12 10 9 9 9 12 12 11 11 11 12 13 10 10 12 14 12 9 8 9 8 8 9 9 9 9
18 18 18 18 19 19 19 19 19 19 19 19 19 20 20 20 19 19 19 20 20 20 20 21 21 21 21 21 21 20 18 17 16 17 17 18 19 20 20 19 20 20 19 20 19 21 21 21 19 17 18 17 16 16 14 15 17 16 15 13 12 12 11 9 8 9 9 10 9 9 11 12 12 11 9 10 12 13 12 9 7 7 6 7 8 9 9 9
18 18 18 18 19 19 19 19 19 19 19 19 19 20 20 20 20 20 19 19 20 20 20 21 21 21 21 21 21 21 18 16 16 17 17 18 19 19 20 20 20 20 19 19 19 20 21 19 18 18 18 16 16 15 13 16 18 14 14 13 13 12 11 10 10 9 9 10 9 10 13 12 9 9 11 12 12 13 12 10 8 7 7 8 8 9 9 9
18 18 18 19 19 19 19 19 19 19 19 19 19 20 20 20 20 20 19 20 20 20 20 21 21 21 22 21 21 21 17 16 16 17 17 18 19 20 20 19 20 20 19 18 18 19 20 19 18 19 18 16 15 14 13 15 15 12 12 13 13 12 11 11 11 10 10 10 9 11 14 12 9 9 14 14 9 9 10 9 8 7 8 9 9 9 9 9
18 18 19 19 19 19 19 19 19 19 19 19 19 20 20 20 20 20 20 20 20 20 20 20 20 21 21 21 21 19 16 16 16 17 17 18 19 19 19 19 19 20 19 18 16 16 18 18 17 18 19 17 15 14 12 12 12 12 13 14 13 13 12 12 12 11 11 12 9 10 12 11 8 9 14 13 8 8 9 9 8 7 8 9 9 9 9 8
18 19 19 19 19 19 19 19 19 19 19 19 19 20 20 20 19 20 20 20 20 20 20 20 20 21 21 20 19 17 16 16 16 17 17 18 18 18 18 19 19 19 19 18 15 15 17 16 17 18 17 16 15 15 13 11 12 12 13 15 15 14 14 13 12 11 11 12 9 9 13 12 9 11 15 12 8 8 8 9 9 8 8 9 9 9 9 8
18 19 19 19 19 19 19 19 19 19 19 19 19 19 20 20 19 20 20 20 20 20 20 20 20 21 21 19 17 16 16 17 17 17 17 18 17 17 18 18 19 19 19 18 16 15 16 16 17 16 14 15 15 14 14 12 12 13 13 15 16 17 16 12 11 10 11 11 8 10 16 17 13 13 15 11 8 8 8 10 10 9 9 8 8 8 8 8
18 19 19 19 19 19 19 19 19 19 19 20 20 20 20 20 20 20 20 20 20 20 20 20 20 21 20 18 16 17 17 17 17 17 17 18 17 18 18 18 18 18 18 17 16 16 16 16 17 15 13 14 13 12 14 13 13 14 14 14 15 18 17 12 10 11 12 10 8 11 16 18 17 16 15 10 8 9 10 13 12 11 10 9 9 8 8 9
18 19 19 19 19 19 19 19 19 19 20 20 20 20 20 20 20 20 20 20 20 20 20 20 21 21 19 17 17 17 17 17 17 16 17 17 17 18 18 18 18 17 17 17 16 16 16 17 17 15 13 12 13 15 16 15 15 14 16 17 16 17 18 14 10 10 12 10 9 12 15 18 19 17 13 9 8 9 10 13 13 12 11 10 9 8 8 9
19 19 19 19 19 19 19 19 19 19 19 19 19 20 19 19 19 20 20 20 20 20 20 20 20 21 20 18 17 17 17 16 16 16 16 16 17 18 18 18 18 18 18 17 17 16 16 16 13 12 14 14 15 17 18 18 17 15 17 19 17 16 18 16 11 8 10 11 10 12 14 16 17 15 11 8 8 9 10 12 13 13 12 11 10 9 9 9
19 19 19 19 19 19 19 19 19 19 19 19 19 19 19 19 19 20 20 20 20 20 20 20 20 20 19 17 17 17 16 15 16 15 16 16 17 17 18 18 17 17 18 18 18 17 16 15 11 13 15 15 15 17 19 20 20 18 16 18 17 16 16 17 14 9 9 11 11 12 12 14 16 15 13 10 9 10 10 11 12 12 12 12 11 10 10 10
19 19 19 19 19 19 19 19 19 19 19 19 19 19 19 19 20 20 20 20 20 20 21 20 20 21 19 17 17 16 15 15 15 15 16 16 16 17 18 17 16 17 18 18 18 17 16 15 14 16 17 15 16 18 20 19 19 18 17 18 17 15 15 16 15 11 9 11 11 12 12 13 15 16 16 14 12 11 11 12 12 12 12 12 11 11 10 10
19 19 19 18 19 19 19 19 19 19 19 19 19 19 19 19 20 20 19 19 19 20 20 18 18 20 18 16 15 15 15 15 15 15 15 15 16 16 17 16 16 17 18 18 18 15 14 16 17 18 19 17 16 16 17 16 15 16 15 16 16 16 16 16 14 10 9 11 12 12 13 14 15 15 16 16 14 12 12 12 11 11 11 11 11 10 10 10
19 18 18 18 19 19 19 19 19 20 19 19 19 20 20 20 20 20 18 16 15 14 15 15 14 16 16 15 14 15 15 15 15 15 14 15 15 16 16 16 17 18 16 16 17 12 11 18 20 19 18 15 13 12 12 12 12 13 14 14 14 14 15 15 13 9 8 10 13 13 12 13 14 15 15 15 14 12 12 11 11 11 11 10 10 10 10 10
18 18 18 18 18 19 19 19 19 19 19 19 20 20 20 19 19 20 17 14 12 10 12 13 12 14 15 14 13 14 15 16 16 15 15 14 14 17 17 16 18 19 14 11 14 12 12 19 19 14 13 11 10 10 10 11 12 12 13 14 14 14 14 14 11 9 8 10 12 12 11 13 14 15 16 14 13 12 12 12 11 11 11 10 10 10 10 10
18 18 18 18 19 19 19 19 19 19 19 19 20 19 18 18 18 18 17 17 14 11 12 12 12 14 14 13 13 12 15 17 17 16 15 14 16 17 17 17 18 18 13 11 15 16 17 19 14 10 9 9 9 9 10 11 11 12 13 13 14 14 14 13 10 8 9 10 12 12 10 13 15 15 15 12 12 12 11 10 10 11 11 11 11 10 10 10
19 18 18 19 19 19 19 19 19 20 20 19 19 18 17 17 17 17 18 19 16 13 13 14 14 15 15 14 13 13 16 16 16 16 13 14 16 15 16 18 17 16 14 15 17 19 20 17 10 7 9 10 10 9 10 12 12 13 13 14 15 14 13 14 11 9 10 10 10 10 10 12 15 16 14 10 9 10 9 8 8 8 9 11 11 10 10 10
19 19 19 19 19 19 19 18 19 19 19 19 18 18 17 17 17 17 17 17 17 15 13 13 13 14 15 14 13 14 15 13 13 15 12 13 14 13 14 15 15 17 16 14 15 18 17 12 7 7 9 11 11 10 11 13 14 14 13 14 15 14 13 14 12 10 11 10 8 10 13 16 16 17 17 12 9 10 9 9 9 9 8 9 9 9 9 9
19 19 19 19 19 19 19 19 19 19 19 18 18 17 17 17 16 17 18 17 17 16 14 13 12 13 14 13 14 13 14 13 13 13 11 11 13 13 13 11 14 18 15 12 14 17 14 7 6 9 10 10 12 12 12 13 15 15 13 13 13 12 11 12 11 11 14 13 9 10 15 19 18 17 18 15 12 13 12 11 13 12 10 9 8 10 10 10
19 19 19 20 20 19 20 20 19 18 19 19 18 17 17 17 16 17 18 18 19 17 15 15 15 15 14 13 13 12 15 15 12 11 10 10 10 12 14 11 12 15 13 12 14 14 11 6 6 10 10 11 11 13 12 12 15 16 13 10 10 10 10 10 11 11 14 15 11 10 14 18 19 18 17 13 13 15 15 14 16 15 12 11 10 11 11 11
19 19 20 20 20 20 20 20 19 19 19 19 18 17 17 17 17 17 18 19 19 17 16 16 15 15 14 12 11 14 17 16 12 11 10 10 10 12 15 14 13 13 11 13 16 13 9 7 8 10 11 12 13 14 13 11 15 15 10 8 9 9 10 10 10 11 12 13 11 11 13 14 17 18 14 12 14 17 17 17 16 16 15 13 12 11 11 11
20 20 20 20 20 20 20 19 19 19 19 18 18 18 17 17 17 17 19 20 18 16 16 16 14 14 14 11 11 14 15 13 14 14 9 10 11 12 16 15 15 14 10 13 19 14 9 10 10 10 12 13 14 13 11 11 14 12 7 8 9 8 9 9 9 11 10 11 13 12 12 14 17 18 15 13 17 17 17 17 16 15 14 13 13 12 11 10
20 20 20 20 20 20 19 20 19 18 18 18 18 18 17 17 17 18 19 20 18 16 15 15 15 14 13 13 13 13 12 13 15 14 10 11 12 12 14 13 12 13 9 12 17 13 9 9 9 11 13 14 13 10 8 11 12 9 7 7 7 7 8 9 10 11 9 11 15 13 11 14 18 19 18 16 17 16 15 16 15 14 14 13 13 12 12 11
20 20 20 20 20 19 20 20 19 18 18 18 18 17 17 17 18 19 20 19 18 16 15 15 15 14 13 15 15 13 13 13 12 11 11 12 12 11 10 8 10 13 11 11 13 11 8 6 7 9 11 11 10 7 6 8 8 7 8 9 9 8 8 9 9 10 11 13 14 11 10 12 16 18 18 16 14 13 13 14 14 14 13 13 13 13 12 11
20 20 20 20 20 19 20 19 18 18 17 17 17 16 17 18 18 20 19 17 17 17 16 16 14 13 13 15 16 14 14 13 11 12 14 13 13 13 12 12 13 14 15 14 13 10 8 8 9 8 7 8 9 8 6 6 6 8 11 12 13 12 10 11 11 10 13 16 12 9 9 11 14 17 18 16 14 12 12 12 13 12 12 13 13 13 12 11
20 20 20 20 19 19 19 18 17 17 17 17 17 17 19 19 19 20 19 17 18 17 16 15 13 12 12 13 14 13 12 13 12 12 13 12 14 14 13 15 16 16 18 17 15 14 12 10 9 8 7 7 10 12 10 8 8 10 13 14 15 16 14 14 14 13 15 14 10 8 9 10 14 16 17 16 14 13 12 11 11 11 12 12 12 12 11 10
19 19 19 19 19 19 18 17 17 17 17 17 17 18 19 20 19 18 17 18 18 15 13 13 12 11 12 14 14 11 11 13 12 11 10 11 14 14 10 10 11 15 18 15 15 17 15 11 8 9 9 7 9 14 14 13 12 12 13 14 15 16 14 14 15 15 15 13 8 7 9 11 15 16 15 14 14 12 11 10 10 10 11 11 11 10 10 10
19 19 19 18 18 18 17 17 16 16 17 17 18 19 19 20 18 15 17 18 15 12 11 11 11 12 12 14 13 10 12 14 11 11 12 12 15 16 13 10 9 12 15 15 15 16 17 15 12 10 10 8 8 11 11 12 13 11 11 12 14 15 14 14 14 14 14 12 9 7 9 13 15 14 13 13 13 11 10 10 10 11 11 10 10 10 10 10
18 18 18 18 17 17 16 16 16 16 17 18 19 19 19 20 18 16 18 17 14 13 12 9 11 14 14 13 10 9 12 14 11 12 13 14 16 16 15 13 10 11 14 16 15 13 16 17 11 7 7 7 8 8 6 10 12 10 9 11 13 13 13 13 12 11 10 10 9 9 10 13 15 14 12 12 12 11 11 11 11 12 11 11 11 11 11 10
17 17 17 17 16 16 16 16 16 17 18 19 19 18 18 18 17 16 16 14 13 14 14 12 13 17 17 15 13 10 10 12 12 14 14 13 14 14 13 11 8 9 12 15 15 13 16 16 9 6 7 6 7 7 6 9 12 11 10 12 11 9 11 13 11 8 7 9 11 11 11 13 14 14 13 13 13 12 11 11 11 12 11 11 11 10 10 10
17 17 17 16 16 16 16 16 17 17 18 19 19 18 16 15 13 13 12 11 11 12 15 17 16 16 17 16 15 13 11 12 12 14 15 14 14 13 12 10 6 7 9 10 13 13 14 15 9 7 9 7 4 6 6 6 9 11 12 11 9 7 9 11 10 10 10 11 12 11 11 13 13 14 14 14 13 12 11 11 11 11 11 10 10 10 10 10
17 17 16 16 16 16 16 17 17 18 18 18 18 16 14 14 11 9 9 9 10 11 15 18 16 14 15 16 16 13 12 15 14 14 16 15 14 12 11 10 6 5 5 7 12 12 12 15 11 6 8 8 4 7 9 7 6 9 10 9 9 10 11 11 10 11 11 11 12 11 10 10 11 13 14 13 12 11 10 11 11 10 10 10 10 10 9 9
17 17 17 16 16 16 17 17 17 17 18 18 19 17 13 12 9 6 6 7 10 12 15 15 14 14 14 14 15 13 11 14 14 14 15 15 15 12 10 10 8 5 5 6 11 12 11 14 13 8 6 8 8 10 12 11 8 7 8 8 9 9 10 10 10 10 10 10 11 11 10 11 12 12 13 12 11 10 10 10 10 10 10 9 9 9 9 9
16 18 17 15 16 17 16 17 17 18 18 16 16 15 12 11 9 5 3 6 9 12 13 14 13 14 14 12 13 12 11 11 12 13 14 14 14 12 8 8 9 7 5 6 9 11 11 13 14 11 8 9 11 11 12 13 11 9 10 9 9 8 8 9 8 8 9 11 11 9 10 12 13 12 12 11 10 10 10 10 9 9 9 9 9 8 8 8
16 18 18 15 16 16 16 18 16 14 16 15 13 13 11 10 9 6 3 4 7 9 10 12 12 13 14 13 12 12 11 11 10 12 13 12 14 13 6 3 5 7 7 9 10 10 11 13 13 12 12 13 12 8 7 9 10 10 11 11 10 9 9 9 9 7 7 8 9 8 9 11 13 12 12 11 10 10 10 9 9 9 8 8 8 8 8 7
16 18 17 15 17 17 17 17 11 7 13 15 11 10 9 8 9 8 6 5 7 8 8 10 11 11 12 13 12 11 11 12 11 11 13 12 12 12 5 -1 1 4 7 10 9 7 9 11 11 12 13 12 8 5 4 5 6 8 9 9 9 9 10 11 10 8 7 6 6 6 6 9 12 12 11 11 11 10 10 9 8 8 8 8 8 7 7 7
17 18 16 15 16 16 17 17 12 10 13 11 7 7 7 7 8 8 7 7 8 8 9 10 10 11 11 11 11 11 11 12 12 12 12 11 10 6 1 -1 -0 4 7 9 9 7 8 10 11 12 13 10 6 5 4 4 5 8 8 7 7 8 8 8 8 7 7 7 7 7 7 9 12 11 11 11 10 9 9 8 8 7 7 7 7 7 6 6
15 15 15 16 17 17 18 17 16 16 14 9 8 9 7 6 8 8 8 9 9 9 11 11 10 10 10 8 9 11 11 12 13 12 11 11 8 2 -1 -1 1 5 7 7 8 8 9 12 11 12 13 12 10 10 8 7 7 9 9 6 5 5 5 5 5 5 7 8 8 8 8 10 12 12 12 11 10 9 8 8 7 7 6 6 6 6 6 6
14 14 14 15 15 15 15 13 15 17 14 12 12 11 9 8 7 6 8 9 7 8 10 10 8 9 8 8 9 9 10 12 13 11 9 10 8 2 -1 -1 0 3 4 2 3 6 9 11 11 12 13 12 13 13 12 11 10 9 8 5 4 4 5 6 6 6 7 7 7 8 9 11 12 12 11 10 9 8 7 7 7 6 6 6 5 5 6 5
16 17 16 16 15 13 10 7 11 15 14 14 14 11 11 12 8 5 6 8 7 7 8 8 7 8 9 9 10 10 9 10 10 10 9 10 9 4 -0 -1 -1 1 2 1 2 5 8 8 9 11 12 12 13 12 9 9 10 9 8 7 5 4 3 5 7 7 7 7 6 8 9 9 10 10 10 9 7 6 6 6 6 5 5 5 5 5 5 4
16 17 16 16 16 14 12 9 11 14 13 13 15 12 11 12 10 7 6 7 7 6 7 8 7 9 11 10 11 12 9 9 9 9 9 9 8 4 -0 -1 0 0 1 2 3 5 8 9 8 9 10 10 11 10 8 7 8 8 8 7 6 4 3 4 6 7 8 7 7 9 9 8 8 9 8 7 6 5 5 5 5 5 4 4 4 5 4 4
14 15 12 11 14 16 15 12 11 12 12 12 12 11 12 13 13 12 9 7 6 6 8 10 9 9 11 10 12 12 10 10 10 9 9 8 7 6 4 2 2 1 2 4 4 5 9 9 6 5 8 9 8 8 8 7 6 7 7 7 7 4 3 4 5 7 7 6 6 8 8 7 7 7 7 6 5 5 5 5 5 4 4 4 4 4 4 3
12 13 9 8 12 13 11 9 9 11 12 12 11 11 13 14 14 12 9 8 9 7 8 12 12 10 9 9 10 12 11 12 12 11 10 8 7 8 8 6 4 2 3 6 4 4 7 9 5 3 6 8 8 7 6 6 6 6 6 7 7 5 4 5 5 6 6 5 6 7 6 6 7 6 6 5 5 5 5 4 4 3 3 3 3 3 3 3
13 15 12 10 11 9 7 7 9 12 12 11 13 12 11 13 14 11 8 10 12 10 8 11 13 9 8 8 9 11 11 11 12 10 9 8 8 8 9 9 7 4 4 5 4 3 6 7 4 3 6 8 7 5 5 6 6 6 6 7 7 6 6 5 4 5 5 5 6 6 5 6 6 6 5 4 5 4 4 3 3 3 3 3 3 3 3 2
12 12 12 14 14 9 8 9 9 13 14 13 14 13 11 12 12 11 10 8 9 11 9 10 12 9 7 7 8 10 9 8 9 8 7 7 8 7 7 7 7 6 5 4 3 4 6 6 4 4 7 9 7 6 6 6 5 5 6 6 6 6 6 5 5 6 6 5 5 5 5 5 5 5 4 4 4 3 3 3 2 3 3 3 3 2 2 2
11 11 10 15 15 10 9 10 10 13 15 13 12 12 12 11 9 9 12 9 6 7 7 8 10 9 8 9 9 7 6 5 5 4 3 4 5 4 4 4 4 6 6 4 3 2 4 6 6 6 7 9 8 7 7 6 6 6 5 5 5 6 6 6 6 6 6 6 5 4 4 4 4 3 3 3 3 3 2 2 2 2 3 3 3 2 1 1
Height
842 842 843 843 843 844 844 845 845 845 845 845 845 845 845 846 846 846 846 845 845 845 844 843 843 842 842 842 842 841 841 840 839 838 840 846 846 843 841 838 837 835 835 834 833 833 832 831 831 831 830 832 836 838 840 842 844 840 839 843 844 850 854 854 856 858 857 859 867 874 873 868 869 876 879 879 878 877 878 878 877 876 875 874 874 875 876 877
843 843 843 844 844 844 845 845 845 846 846 846 846 846 846 846 846 846 846 846 845 845 844 843 843 842 842 841 841 840 841 840 839 840 843 846 844 842 840 838 837 835 835 834 834 833 832 832 832 831 831 835 840 840 840 844 844 845 846 844 845 851 856 860 857 859 861 859 864 871 872 870 867 871 877 875 871 875 876 872 874 874 871 871 872 873 874 876
844 844 844 844 845 845 845 846 846 846 846 846 846 846 847 846 846 846 846 846 845 845 845 844 843 842 842 841 840 840 840 839 839 843 845 845 842 841 839 838 836 835 835 834 834 833 833 833 832 833 834 838 844 842 842 846 847 852 849 841 849 859 861 866 863 863 866 862 864 869 874 873 870 872 876 873 869 874 871 864 868 869 865 865 867 870 872 874
845 845 845 845 845 845 846 846 846 847 847 847 847 847 847 847 847 847 846 846 845 845 845 844 843 842 842 840 839 839 838 838 844 848 846 844 842 840 839 838 837 835 835 835 834 834 834 834 834 835 836 840 846 845 846 851 850 852 852 847 857 863 860 866 868 867 870 867 865 868 875 874 872 875 874 872 869 866 862 858 860 860 858 859 862 866 869 871
846 845 845 845 846 846 846 846 846 847 847 847 847 847 847 847 846 846 846 846 846 845 845 844 843 842 841 839 838 837 837 842 849 849 846 844 842 840 839 838 837 836 836 835 835 834 834 834 835 837 839 843 846 846 851 857 854 854 862 863 865 864 860 867 872 872 873 870 869 871 872 871 873 876 873 872 866 855 852 854 855 855 855 857 860 864 866 869
846 846 846 846 846 846 846 847 847 847 847 847 847 847 847 847 846 846 846 846 845 845 844 843 842 842 841 839 837 836 838 848 853 849 847 845 842 841 839 838 837 837 836 836 836 835 835 835 836 841 844 849 851 850 855 860 856 853 863 869 868 867 865 870 874 875 875 870 869 871 869 871 874 871 870 870 861 851 852 855 856 856 857 858 860 863 864 865
847 847 846 846 846 847 847 847 847 847 847 847 847 847 847 846 846 846 845 845 845 845 844 843 841 841 840 839 838 837 842 851 854 850 848 846 843 841 838 838 837 837 837 837 837 836 836 836 838 845 847 851 854 855 858 859 855 852 860 868 869 870 870 873 876 876 877 871 870 873 872 872 871 868 871 868 856 853 856 857 859 858 859 860 860 861 861 861
848 848 847 847 847 847 847 847 848 848 847 848 847 847 847 847 846 846 845 845 845 845 844 842 841 840 839 839 839 841 847 853 853 851 850 846 843 841 839 839 837 838 838 837 838 836 837 839 841 846 848 853 855 856 861 857 854 856 862 867 869 871 872 876 877 876 878 875 876 877 871 870 870 872 873 862 852 853 855 857 859 860 860 860 859 859 860 860
848 849 848 848 848 848 848 848 848 848 848 848 847 847 847 847 847 846 846 845 845 845 844 843 841 839 838 839 838 844 853 855 854 852 850 848 845 842 839 839 838 838 838 838 838 836 837 841 843 843 847 856 856 858 863 855 854 862 865 866 868 871 874 876 875 877 878 876 878 874 868 870 874 876 864 850 850 851 853 856 857 859 859 858 858 857 858 858
849 849 849 849 849 849 849 849 849 849 849 848 848 848 848 848 847 847 847 846 846 845 844 843 842 839 839 838 838 847 856 855 854 853 851 849 846 842 840 840 839 839 839 839 838 837 838 840 842 841 844 854 857 861 864 859 860 867 868 867 869 871 874 874 873 876 876 875 879 872 865 868 876 876 855 843 853 854 853 856 856 858 857 855 856 855 856 856
850 850 850 850 850 850 850 849 849 849 849 849 848 848 848 848 848 848 847 847 846 845 844 843 842 840 839 838 842 852 856 855 855 854 852 851 846 843 843 842 841 840 839 840 840 840 840 841 843 842 844 851 857 862 865 866 867 869 869 867 869 870 871 872 872 875 875 873 878 875 868 867 877 874 851 844 854 855 853 854 855 856 855 853 853 853 854 854
850 850 851 851 850 851 850 850 850 849 849 849 848 848 849 849 848 848 847 847 846 845 845 843 842 841 839 841 848 855 856 855 855 854 853 851 848 846 846 845 843 842 841 842 843 843 843 844 843 843 848 852 857 862 865 870 870 869 869 865 866 867 867 870 872 875 874 872 878 878 862 856 869 861 841 846 853 853 855 852 852 853 852 852 851 852 852 852
851 851 851 851 851 851 850 850 849 849 849 848 848 848 849 849 849 848 847 847 846 845 845 843 843 841 840 847 855 856 855 856 855 854 853 851 850 849 848 847 845 844 844 843 845 846 845 845 844 847 853 854 860 864 865 870 870 868 869 866 863 860 862 870 875 876 875 874 880 878 854 837 848 846 837 847 852 852 853 849 849 849 850 850 850 851 850 850
851 851 851 851 851 851 850 850 849 849 849 848 848 848 849 849 848 848 847 847 846 845 845 843 843 840 842 852 857 855 856 856 854 854 853 852 851 850 849 849 848 847 847 846 847 847 847 847 845 849 857 858 863 866 865 868 867 867 869 868 865 856 856 870 876 873 872 876 879 877 858 833 832 836 837 847 850 851 848 842 844 844 847 848 848 849 847 848
851 852 852 851 851 851 850 850 850 850 849 849 848 848 849 848 848 848 847 847 846 846 845 844 843 841 846 855 856 856 856 855 855 855 853 853 851 850 851 850 849 849 849 849 849 850 849 848 848 853 862 864 863 862 863 865 865 868 864 858 863 860 856 865 877 876 871 876 879 874 859 835 826 831 839 848 849 850 846 839 840 840 843 845 845 846 845 845
852 852 851 851 852 851 851 850 850 850 849 849 848 848 849 848 848 848 847 847 846 846 845 844 843 841 847 855 856 855 856 856 856 855 854 854 852 851 851 850 851 850 850 851 850 851 849 849 857 862 863 863 861 858 858 859 859 866 864 854 859 864 858 859 874 883 877 875 876 873 862 841 829 833 842 849 848 848 845 839 838 838 839 841 842 843 843 844
852 852 852 852 852 851 851 851 850 850 850 849 849 849 849 849 848 847 847 846 845 846 845 845 844 842 849 855 856 856 857 857 856 856 855 854 852 852 851 851 852 851 850 850 849 851 850 854 863 863 861 864 864 860 856 854 851 858 864 859 859 865 863 858 866 880 882 876 873 872 868 849 832 831 837 842 844 844 841 837 836 836 837 838 840 841 842 842
852 852 852 852 852 852 851 851 851 850 850 850 849 849 849 849 849 847 847 845 845 845 844 845 843 845 854 857 857 858 858 858 857 856 855 854 853 852 852 852 852 851 851 851 851 852 853 857 861 858 860 863 863 859 856 858 857 859 862 859 860 865 865 862 863 875 880 876 872 870 866 848 831 827 829 832 837 838 835 834 834 834 835 836 838 839 839 840
852 852 852 852 852 852 851 851 851 850 850 850 850 850 849 849 848 848 847 845 847 848 849 851 849 852 858 859 859 859 858 858 857 856 855 854 853 852 852 852 852 851 852 852 852 858 860 857 857 855 855 859 864 864 863 868 870 868 869 868 866 865 862 861 866 877 882 876 869 866 861 845 830 826 826 826 830 833 832 832 833 834 836 837 838 838 838 838
852 852 852 852 852 852 852 851 851 851 851 850 850 849 849 850 850 850 850 851 855 858 858 858 857 858 859 860 860 859 858 858 858 857 856 854 853 853 852 852 853 852 857 860 857 866 869 857 853 856 858 865 874 877 877 879 879 875 875 873 872 870 864 860 869 882 886 876 863 860 861 846 831 826 824 824 827 831 831 831 833 833 835 836 837 837 836 836
853 853 853 852 852 852 851 851 850 851 851 851 850 849 850 852 853 853 855 859 862 863 861 861 861 860 860 861 861 859 859 857 858 857 855 855 854 852 852 854 854 854 866 874 867 869 868 855 857 867 873 878 882 885 884 881 881 878 875 874 873 872 865 862 874 883 884 879 863 861 864 845 828 823 821 825 829 830 830 831 831 832 833 835 835 835 834 833
853 853 853 853 852 852 851 850 850 850 851 851 850 850 850 851 852 852 854 858 862 862 862 861 861 860 861 861 860 860 859 857 857 856 856 855 852 852 854 855 856 859 870 874 865 862 859 856 870 882 884 885 886 888 884 881 882 878 875 875 869 867 865 865 877 884 883 878 863 863 868 843 823 822 823 829 831 831 833 834 834 833 833 833 832 833 833 832
853 853 854 853 853 852 851 850 849 850 850 850 850 850 851 851 852 852 851 855 860 863 863 862 861 861 861 861 861 860 858 860 860 857 858 856 854 858 857 855 859 863 867 865 861 858 853 861 882 891 886 882 884 887 884 879 878 875 874 872 864 865 868 862 871 881 878 875 869 870 870 843 822 821 824 834 838 835 837 837 837 838 834 832 832 832 832 831
853 854 853 853 853 852 851 850 849 850 850 851 851 851 852 852 852 852 853 858 862 863 863 863 863 862 861 861 861 860 860 864 864 861 860 858 859 861 860 863 864 861 865 869 867 861 860 877 892 892 886 880 880 883 882 874 868 869 872 870 864 866 871 865 869 876 867 871 879 870 851 829 820 819 817 828 838 833 835 836 834 835 835 834 834 833 832 830
854 854 854 854 853 853 852 851 850 851 851 852 852 852 853 852 853 853 854 861 863 862 863 864 863 863 862 862 861 861 862 864 866 864 863 863 862 862 866 871 866 858 866 875 871 861 868 890 895 887 885 881 877 876 876 872 864 864 868 870 870 870 875 873 873 873 857 855 873 868 841 817 814 818 816 822 830 826 828 830 825 827 831 834 833 829 828 828
854 854 854 854 853 853 852 852 852 852 852 852 852 853 853 852 854 852 854 862 863 862 864 863 863 863 862 862 862 863 862 862 866 866 865 865 864 863 865 871 870 865 871 874 870 868 879 895 893 883 881 881 878 873 874 877 867 861 869 877 879 879 879 878 877 874 856 848 864 870 851 828 815 813 819 828 829 822 822 823 819 822 827 830 831 828 826 828
854 855 854 854 854 853 852 853 853 852 853 853 852 853 853 853 854 852 857 866 865 863 864 863 863 863 862 865 865 862 859 862 866 867 867 865 865 864 861 865 869 869 876 873 862 869 883 890 889 884 879 876 873 868 871 877 866 862 880 886 882 883 880 880 880 874 865 859 864 867 859 846 829 817 826 834 826 818 818 819 818 820 825 828 829 830 830 831
855 855 854 854 854 853 853 853 852 853 853 853 853 854 853 854 854 854 860 869 868 864 864 863 863 863 863 865 865 863 863 865 863 863 868 866 864 864 860 863 865 866 878 872 854 866 881 880 881 880 876 871 866 868 874 875 867 870 887 888 884 887 882 883 880 871 875 869 853 856 861 849 828 814 823 828 819 818 819 819 822 824 827 830 829 830 831 831
855 855 854 854 853 853 853 852 852 852 852 853 853 853 854 854 854 856 863 869 867 864 865 864 862 864 865 865 865 867 867 866 864 863 867 866 864 864 862 867 870 869 878 873 858 868 880 880 880 876 870 867 868 878 882 875 871 880 891 890 889 890 884 883 878 871 879 868 844 854 865 849 825 810 815 821 820 826 826 823 826 828 829 830 829 829 829 828
854 854 854 854 853 853 852 852 853 852 852 853 852 853 854 853 855 863 869 868 864 865 866 863 863 867 867 863 863 867 867 866 869 867 866 866 865 866 870 874 874 870 873 875 868 874 885 887 886 880 874 874 877 886 889 884 883 887 886 880 878 882 884 881 877 875 869 852 849 866 871 858 837 814 811 823 831 835 833 829 828 828 828 828 827 827 828 829
854 854 854 853 853 853 852 853 852 852 853 852 853 854 853 855 861 868 871 867 864 866 864 864 869 871 870 867 864 865 867 867 871 867 862 865 864 864 868 868 866 866 863 864 867 876 884 882 880 883 884 883 880 882 888 890 890 885 875 867 860 862 870 869 870 874 854 838 858 878 876 868 848 821 812 823 834 837 837 836 833 831 831 829 828 828 829 830
854 853 853 853 853 852 852 853 852 853 853 852 853 852 854 862 865 865 868 865 863 865 866 869 873 874 876 874 869 872 872 869 871 871 869 870 865 863 869 865 861 861 855 855 861 863 870 876 880 884 886 886 878 870 876 883 883 876 866 862 856 846 851 852 849 851 841 845 872 882 876 867 843 822 818 823 830 835 838 839 837 836 834 832 832 831 830 830
854 853 853 852 852 852 852 852 852 853 852 852 853 852 858 866 866 869 870 862 863 871 874 876 877 879 879 871 870 880 878 870 872 875 876 876 868 867 878 881 875 865 857 862 862 853 857 872 881 879 879 886 880 863 860 865 870 868 862 861 858 851 857 855 844 842 841 854 880 888 879 859 832 822 826 828 830 835 839 841 839 838 837 836 835 833 830 829
854 853 853 852 852 852 852 852 852 852 852 853 852 856 864 865 868 876 871 862 869 877 879 881 878 878 877 871 876 883 874 869 877 876 873 871 864 862 871 880 883 872 864 866 865 862 857 858 869 875 875 883 882 873 870 867 866 871 873 869 860 857 862 857 848 845 844 853 876 890 875 845 825 826 831 830 831 836 840 839 837 835 835 835 833 831 829 826
854 854 853 853 853 852 853 853 853 852 852 852 854 863 868 864 865 870 866 866 873 874 878 885 880 870 870 874 882 886 875 870 877 874 870 867 861 860 864 871 881 878 867 861 864 872 861 852 872 886 885 886 882 883 888 876 867 877 883 872 863 863 862 860 863 868 873 873 873 875 860 832 821 824 829 831 831 834 836 833 832 832 831 832 830 828 827 825
855 854 853 853 853 853 853 852 853 853 852 853 859 866 867 863 866 869 869 873 874 872 872 876 874 864 862 869 875 883 881 876 875 868 868 871 866 867 871 875 884 883 872 865 864 869 859 856 879 889 884 890 887 886 891 879 868 875 875 866 872 882 871 861 870 885 894 880 858 853 845 827 822 822 823 826 825 828 831 831 831 830 829 830 828 827 826 824
855 854 854 855 854 853 854 853 853 853 853 855 861 868 869 870 874 876 877 879 879 879 871 864 867 866 865 867 867 875 879 875 875 868 863 868 868 869 874 881 891 889 884 879 869 870 866 859 876 887 879 887 895 890 889 889 881 871 868 871 881 887 878 871 873 872 872 860 845 847 843 831 829 825 819 822 825 829 832 832 831 829 828 828 827 826 825 823
856 855 855 855 855 855 854 853 854 853 854 860 864 870 873 874 881 885 885 885 882 880 871 862 867 871 871 869 866 875 878 868 869 871 864 863 866 871 875 879 891 894 895 891 874 874 876 860 869 890 884 883 894 888 878 886 890 879 876 881 880 873 867 871 874 865 862 857 843 842 846 842 839 829 823 827 832 835 836 833 832 830 830 830 828 827 825 824
856 856 856 856 856 856 855 854 856 855 857 864 864 868 875 877 885 893 892 889 883 876 871 869 872 873 873 873 869 875 881 872 870 872 867 864 865 875 880 879 886 894 896 894 879 875 879 865 863 883 889 884 883 877 866 871 886 887 884 884 883 879 871 872 876 872 867 861 848 846 845 835 829 827 827 832 837 839 838 835 834 834 833 832 830 828 826 825
856 856 857 858 856 856 856 855 856 856 859 869 869 871 879 881 885 895 896 892 885 878 874 873 875 873 872 878 877 878 884 883 879 874 870 870 868 874 888 888 885 891 895 894 887 879 878 871 861 870 884 878 867 868 864 861 871 878 877 877 881 886 886 883 881 879 872 860 853 857 846 824 822 828 828 833 838 838 837 836 835 834 834 833 831 830 828 826
857 857 857 859 856 857 858 855 863 870 867 871 875 877 882 883 884 892 896 894 889 885 882 878 876 874 872 876 879 881 883 883 885 879 872 873 869 870 892 902 894 892 891 885 883 881 876 871 866 864 866 859 860 878 883 874 872 869 865 868 870 875 881 876 873 883 888 876 865 867 856 830 822 828 829 834 838 835 835 836 835 835 834 832 831 830 829 826
857 859 859 858 856 857 857 859 878 887 873 869 878 882 885 887 886 888 892 893 890 887 886 882 880 880 877 876 879 884 882 879 883 881 873 874 874 875 895 910 906 899 890 880 882 890 885 877 873 866 859 863 877 890 893 889 885 878 874 875 874 874 873 865 864 876 887 888 884 885 876 844 823 827 832 832 834 835 836 837 836 836 834 832 831 830 828 826
858 859 858 858 858 858 858 863 877 881 873 879 889 889 890 890 886 887 890 889 887 886 883 881 882 881 881 883 883 884 882 877 876 877 875 877 882 891 904 910 907 899 891 883 883 892 888 877 875 864 855 870 887 890 892 895 889 879 878 885 884 881 880 877 879 882 880 877 876 878 869 841 823 827 829 828 833 837 838 840 840 837 834 832 831 829 828 825
861 861 860 859 857 857 859 863 867 867 872 884 887 884 889 892 888 887 886 884 885 884 879 880 884 882 885 890 887 884 883 876 872 876 880 879 885 902 911 910 906 897 890 888 886 889 881 870 872 866 853 859 868 869 874 881 880 872 874 889 894 891 895 896 895 895 884 871 867 866 852 829 821 826 826 828 836 838 840 843 842 839 837 834 832 830 828 825
862 862 862 860 858 859 863 868 867 864 871 877 876 879 884 886 889 890 886 885 888 886 880 883 888 887 889 893 889 887 887 879 874 879 885 884 888 903 910 909 907 900 897 902 899 892 882 874 873 867 859 858 854 853 859 863 869 872 876 890 897 896 897 890 885 889 882 873 873 868 848 827 822 827 829 834 840 842 844 844 842 842 840 837 835 831 827 824
860 861 862 861 861 863 870 878 873 865 870 871 870 878 879 877 886 893 890 886 889 890 887 887 891 889 889 889 883 883 887 885 883 884 884 881 884 898 909 909 908 905 903 905 902 894 888 886 880 869 863 859 852 858 871 872 871 872 874 882 890 898 901 891 884 882 876 874 872 861 850 840 832 833 836 841 846 847 847 845 844 843 840 838 836 831 827 826
860 861 864 862 862 864 869 876 873 868 872 870 867 875 877 874 880 887 888 888 889 891 889 889 890 885 882 883 879 878 885 888 888 887 885 883 886 898 908 909 907 906 904 902 900 895 886 882 884 880 872 867 864 868 878 882 879 876 877 880 884 896 902 895 887 876 871 876 868 851 851 851 841 838 843 848 851 851 848 846 844 842 840 839 835 830 828 826
862 864 870 868 864 864 866 871 875 873 874 874 875 878 875 872 873 875 882 889 891 891 886 882 885 884 880 882 878 876 882 883 882 883 883 886 890 891 897 903 904 904 902 898 898 896 884 879 891 896 882 874 876 875 876 883 884 881 883 881 882 893 899 893 885 876 875 882 869 851 853 855 848 847 851 854 856 854 850 847 845 844 841 837 832 829 827 824
865 866 873 873 869 871 876 879 879 874 872 875 876 876 873 869 869 875 883 885 884 889 887 875 875 882 884 885 881 877 877 874 873 877 881 886 889 885 884 890 898 903 900 894 898 901 888 881 897 907 891 876 877 881 882 885 885 884 885 882 880 887 892 889 885 879 879 879 868 859 860 858 854 855 857 858 859 856 853 849 847 845 840 836 832 829 826 824
862 861 868 872 872 879 885 884 878 871 873 876 871 873 877 872 869 877 884 880 873 881 888 877 873 883 888 888 885 878 875 875 873 877 884 885 885 885 882 882 890 900 899 896 901 903 891 887 902 908 890 874 879 888 887 883 883 883 882 881 880 880 883 888 889 883 879 876 870 866 864 858 855 858 860 860 859 857 854 851 848 844 840 836 832 828 827 824
860 860 862 862 868 879 882 881 879 870 868 871 869 871 876 873 874 877 880 884 880 878 882 879 875 884 891 891 887 880 881 885 883 884 889 887 885 887 887 886 889 893 896 900 903 900 893 894 902 902 883 869 876 884 881 882 887 888 884 883 883 881 880 884 883 878 875 874 869 867 865 861 859 860 860 858 857 857 856 854 850 844 840 836 832 830 829 825
860 860 861 858 863 878 880 877 877 871 866 871 874 874 875 876 882 881 874 882 890 886 885 885 881 884 886 884 885 887 890 893 892 892 895 893 892 895 894 896 896 892 893 900 905 906 903 893 893 896 883 867 871 877 878 880 879 879 885 889 885 883 882 881 880 876 871 870 871 871 869 866 865 864 861 856 853 854 856 854 850 844 839 835 833 832 830 825
Wind_Speed
11 11 11 11 11 10 10 10 9 8 7 7 6 6 4 4 4 3 4 4 6 10 11 7 3 3 4 4 4 4 6 13 20 24 21 15 20 19 17 14 9 6 4 4 4 2 4 6 8 6 4 5 4 2 2 3 3 2 1 1 1 1 1 2 5 4 1 2 7 8 9 8 5 5 3 2 5 5 4 6 7 7 10 11 7 6 5 2
11 10 10 10 10 10 9 9 9 8 6 5 5 5 4 3 2 2 2 3 3 6 12 12 9 7 6 4 3 3 3 9 19 21 18 18 21 19 16 13 7 5 4 3 5 3 4 5 5 5 4 3 3 2 1 3 5 1 0 1 1 1 1 1 2 4 1 2 7 7 7 6 3 4 5 4 6 6 8 9 9 10 13 15 14 13 10 7
10 9 9 9 9 9 9 9 8 7 5 4 5 4 4 3 2 1 0 1 2 3 7 10 12 13 13 9 3 2 1 7 14 14 19 22 22 20 16 12 7 4 4 3 5 6 6 5 4 4 3 3 3 2 2 4 4 1 1 2 2 2 2 2 0 3 1 1 7 7 4 4 2 3 4 5 6 6 10 10 9 12 14 15 15 14 11 11
8 7 7 7 8 8 9 8 7 5 4 4 5 5 5 5 2 1 1 1 1 3 5 7 9 12 14 14 6 2 2 3 7 12 20 22 22 21 17 11 7 4 4 5 5 7 8 7 7 4 3 3 2 1 3 5 3 1 1 2 4 1 2 3 1 2 2 1 4 6 4 4 3 3 5 5 6 7 11 12 12 13 15 14 13 13 13 14
8 7 6 6 7 8 8 7 6 5 4 4 4 6 6 6 3 2 2 2 4 4 7 8 8 10 12 15 8 3 3 1 5 15 21 21 21 20 16 10 7 3 4 5 4 5 5 5 5 4 3 3 2 1 3 5 3 2 2 2 3 1 1 3 2 2 1 1 3 6 4 3 3 4 9 9 9 8 4 6 11 14 13 8 8 12 13 14
9 8 6 6 7 7 7 6 5 5 5 4 5 8 7 6 5 4 4 4 6 6 8 9 7 9 9 11 10 6 2 1 8 17 19 19 18 17 14 8 4 3 3 4 2 2 3 4 2 2 3 2 4 3 3 3 2 0 2 1 1 1 1 2 1 1 1 2 5 4 2 3 3 6 8 12 17 9 2 2 4 8 7 2 4 10 12 15
9 10 9 7 6 7 6 5 5 5 5 5 7 9 8 7 6 6 6 4 5 5 6 6 7 9 5 6 12 12 7 4 11 16 17 18 15 14 10 6 4 2 2 2 0 2 3 4 4 3 2 2 3 4 3 2 1 2 2 2 1 1 1 1 1 1 1 1 2 1 1 3 6 5 2 11 19 13 2 4 1 3 2 2 5 9 12 15
7 9 10 8 7 7 6 5 5 5 5 5 7 8 7 6 7 9 8 6 5 4 4 6 9 9 2 4 6 9 6 4 12 15 16 17 13 11 7 5 4 2 3 4 2 2 2 3 4 2 1 3 1 3 2 1 3 4 3 3 2 2 2 2 1 1 0 1 1 1 5 4 4 3 5 14 17 15 9 4 2 1 1 5 8 10 12 14
6 7 9 9 8 7 6 5 5 4 4 4 6 7 5 4 7 10 9 7 6 5 5 6 10 9 4 6 4 3 4 5 11 12 15 18 15 13 10 8 5 4 6 8 5 2 0 1 2 3 3 4 1 2 2 2 2 3 3 4 3 2 1 1 2 2 0 0 1 5 8 3 1 3 10 16 12 8 8 7 6 5 6 8 8 11 13 14
5 6 7 8 8 7 6 5 4 3 4 4 5 4 3 3 5 7 7 7 7 7 6 6 9 8 4 5 4 2 2 5 9 9 13 19 17 17 17 12 8 7 8 10 8 5 2 3 5 5 8 6 2 2 3 2 2 3 5 4 3 2 1 1 1 2 0 1 1 6 10 3 3 2 9 7 1 0 4 7 8 8 11 11 9 11 12 14
5 5 6 7 6 6 5 4 3 3 3 4 3 3 3 2 3 5 6 7 8 8 8 6 6 7 10 9 5 4 3 4 7 8 9 16 20 20 20 15 10 11 12 12 11 9 8 10 9 5 4 3 3 4 3 2 3 4 4 4 4 1 2 2 1 1 1 1 1 6 12 5 6 4 13 4 4 3 4 6 8 9 11 11 11 10 10 13
4 4 5 6 5 5 4 4 3 3 3 3 2 3 2 1 1 5 5 6 7 6 7 6 4 7 15 13 6 4 4 4 4 8 8 10 19 21 18 16 13 12 12 11 8 9 10 9 8 4 2 3 4 3 4 3 1 3 1 1 2 2 3 3 1 1 1 1 1 5 10 7 9 10 13 2 4 2 3 7 8 9 10 10 10 9 9 12
4 4 4 4 4 5 5 4 3 3 3 3 3 2 1 1 2 5 5 6 6 5 6 7 4 5 9 8 4 2 3 5 3 6 8 7 13 17 17 17 16 15 15 14 8 6 6 5 8 9 3 2 3 1 5 3 1 2 0 2 2 4 2 2 1 1 2 1 1 4 8 4 10 14 9 4 4 2 4 8 7 8 8 8 8 7 9 12
4 4 4 4 4 5 5 4 3 4 4 3 2 1 0 2 3 4 4 5 6 4 4 7 4 5 8 3 2 3 2 5 4 5 10 8 7 10 13 14 16 17 17 18 15 11 10 10 14 11 3 4 4 4 4 3 1 0 0 1 1 3 0 3 2 2 2 0 2 3 6 7 5 9 6 4 4 4 7 9 7 8 7 7 8 8 9 10
3 3 4 3 3 4 4 4 4 5 4 2 1 1 1 2 2 2 3 4 5 4 4 5 4 5 7 4 1 3 2 4 7 8 11 10 7 5 7 10 12 12 13 14 13 12 11 9 9 7 3 2 3 4 2 1 1 1 2 1 0 2 1 3 3 1 2 1 1 3 6 11 9 2 4 3 3 5 9 10 8 8 7 7 7 7 9 9
2 2 3 3 3 3 3 3 3 4 4 2 1 1 1 1 1 2 2 3 2 3 3 3 5 5 4 3 2 2 4 4 8 9 8 10 10 5 4 6 8 7 8 9 8 8 10 9 5 2 2 1 2 2 0 1 1 1 2 4 1 2 4 1 3 1 2 1 3 4 5 11 9 0 5 4 4 5 8 11 11 10 8 7 6 6 6 7
2 2 3 3 3 2 2 2 2 2 3 2 2 1 1 1 3 3 4 3 2 3 3 3 6 6 3 2 2 1 4 5 8 8 6 7 9 7 4 3 4 4 4 6 7 5 8 7 1 1 2 1 1 1 2 2 2 0 0 3 2 3 4 4 1 3 1 1 3 5 8 16 17 10 5 6 7 7 11 13 13 11 10 8 7 6 7 8
2 2 3 2 2 2 1 1 1 1 1 2 2 2 2 3 6 6 4 5 4 2 2 5 3 3 3 1 1 3 5 6 8 8 7 6 5 6 7 5 2 3 1 1 5 5 4 3 1 1 2 1 1 1 3 3 3 3 3 4 3 3 4 5 3 2 1 3 5 7 10 19 23 18 13 8 8 10 14 14 13 12 11 10 8 8 8 9
2 3 2 1 2 1 1 1 1 0 1 1 1 1 1 1 3 6 9 6 1 1 0 3 2 0 2 1 2 5 4 5 6 7 9 7 3 3 7 7 2 2 1 2 3 4 3 1 1 1 1 1 1 0 2 2 2 2 2 3 5 5 6 6 2 2 2 5 8 8 11 19 23 19 16 12 7 10 13 12 11 10 9 8 8 8 9 10
3 4 2 1 2 2 2 3 2 2 3 2 2 3 2 1 1 2 10 11 4 1 1 1 2 1 2 1 4 5 2 2 3 7 12 9 4 1 3 5 2 3 2 1 2 3 1 2 2 1 1 3 4 4 3 3 2 0 0 2 5 6 8 5 1 3 1 4 7 6 10 20 23 19 15 11 6 8 10 10 9 8 6 6 7 8 9 10
4 4 2 3 3 3 3 3 3 3 5 3 4 2 1 0 1 0 3 4 1 2 2 1 1 1 1 1 6 5 1 2 0 6 13 10 3 1 2 3 1 1 2 1 2 0 2 3 0 2 4 5 5 5 3 3 2 1 1 4 4 5 7 4 2 2 1 2 5 3 10 21 22 17 12 7 5 5 6 6 7 6 5 5 6 8 9 8
5 5 4 5 5 6 5 3 2 3 5 3 4 2 2 1 2 3 2 2 2 3 3 1 1 1 1 0 5 5 0 1 1 5 14 11 3 1 2 2 1 1 2 1 2 1 2 2 3 4 5 7 6 4 2 2 2 0 1 3 4 2 5 3 2 2 2 2 5 4 9 19 20 14 8 4 2 3 3 4 6 5 5 5 5 6 7 7
7 6 6 6 7 9 9 5 1 3 2 2 2 2 3 3 5 4 1 2 2 2 2 2 1 2 2 1 5 5 0 0 1 5 15 12 2 2 1 2 2 1 0 1 1 3 3 1 3 2 3 5 4 3 2 1 1 3 2 4 5 2 2 3 2 1 4 4 6 7 7 14 13 6 1 2 1 4 4 5 6 6 7 7 5 5 6 8
7 6 5 7 9 10 9 7 5 4 2 2 3 4 5 5 4 3 1 1 1 1 1 1 0 1 1 1 5 5 2 2 1 4 14 11 1 1 1 2 1 1 0 1 1 4 2 3 3 3 2 2 3 2 3 2 3 4 5 5 6 3 2 4 3 7 8 4 2 8 7 6 2 1 1 2 0 4 2 3 6 6 8 7 7 7 8 9
5 3 5 7 9 9 6 6 8 7 6 4 5 5 4 3 2 1 1 1 0 0 0 1 1 1 1 2 6 3 2 1 1 4 9 8 1 1 1 1 1 1 2 2 1 4 0 2 2 4 3 2 2 2 3 3 4 3 5 5 5 3 3 5 7 8 7 2 1 5 5 2 2 1 3 2 3 4 0 2 5 4 4 5 6 8 7 8
4 1 4 6 8 9 3 2 4 5 3 2 3 2 2 2 2 2 2 1 0 0 1 1 0 1 1 3 6 2 3 1 2 3 5 5 2 1 2 1 1 1 2 2 0 2 2 2 2 2 3 3 2 3 3 4 4 3 1 2 1 1 4 6 6 5 5 4 2 3 4 4 3 1 2 3 5 5 1 3 4 2 2 3 5 6 4 5
4 2 3 6 8 8 3 1 2 2 2 1 2 1 0 1 3 3 1 1 0 0 1 0 1 2 2 3 4 0 1 1 1 2 5 5 2 1 1 1 1 1 2 1 2 1 4 4 3 2 3 3 3 3 4 7 4 2 2 2 1 2 6 4 4 3 3 5 2 0 2 4 5 1 2 3 5 4 3 2 2 2 3 3 4 5 6 6
5 4 4 5 7 8 4 1 2 1 1 2 4 2 1 1 2 1 1 0 1 1 1 1 0 2 2 1 2 1 1 2 0 1 3 4 3 0 1 1 2 1 2 3 4 0 3 4 6 5 3 4 3 1 4 8 4 1 4 0 1 2 4 2 3 3 2 4 2 3 0 3 5 1 3 1 5 9 9 7 6 7 7 7 7 7 7 6
5 5 5 6 7 7 5 4 2 1 2 2 4 3 2 2 2 1 0 1 0 1 1 1 1 1 2 1 1 2 1 1 1 2 2 2 4 2 0 1 2 3 2 2 3 1 1 1 2 4 3 2 1 2 2 6 2 2 4 1 1 2 1 1 2 2 2 3 2 3 1 3 5 3 2 2 8 11 11 9 8 7 7 6 6 7 8 7
4 5 5 6 6 5 4 4 3 2 2 2 5 3 4 2 1 1 0 1 0 1 0 1 1 2 4 1 1 2 1 1 2 3 2 1 2 4 2 0 2 3 1 1 2 0 2 1 1 2 2 1 2 2 0 1 1 1 2 3 3 3 2 1 1 1 2 3 2 4 2 4 5 2 3 5 4 4 7 8 9 10 11 9 8 9 10 8
3 4 5 6 4 3 3 2 2 2 1 3 3 2 3 1 1 1 1 1 1 1 0 1 1 2 4 1 1 2 1 2 3 3 1 1 1 2 2 1 1 1 2 2 2 1 2 2 1 0 1 1 1 1 1 1 1 2 3 4 4 2 2 2 2 2 3 2 4 4 3 3 4 3 3 5 3 1 4 6 9 12 13 12 12 12 10 8
2 3 3 3 2 2 1 1 1 1 2 3 2 1 0 0 1 1 1 2 1 1 1 1 1 2 3 1 1 3 2 1 3 2 2 1 1 1 0 1 1 2 3 0 0 1 2 2 1 1 0 0 2 2 2 3 2 3 3 3 5 5 2 2 2 2 3 1 4 2 3 3 7 6 5 6 5 4 2 3 6 9 10 12 13 12 10 7
2 2 2 2 1 1 0 1 1 2 3 3 1 1 2 0 1 1 1 2 1 1 1 0 1 1 2 2 1 2 2 1 2 2 1 1 1 0 1 1 1 3 2 1 2 2 1 1 2 2 2 1 2 3 1 2 2 2 3 3 4 5 5 6 4 3 3 1 4 2 3 4 7 3 1 2 6 5 3 1 2 3 6 9 9 9 8 7
4 4 3 2 2 1 2 1 1 3 3 1 1 1 1 1 1 1 1 2 1 1 1 0 1 1 0 1 2 2 1 0 2 2 1 0 1 1 1 1 1 1 1 1 1 1 2 1 1 2 1 1 2 2 3 1 0 0 1 2 3 2 4 6 4 5 6 3 2 0 1 4 3 2 3 2 5 3 1 1 1 2 2 4 6 7 8 10
4 4 3 3 3 3 3 2 2 3 1 1 2 2 1 2 1 1 1 1 0 1 0 1 1 1 0 1 1 1 0 1 2 2 1 0 1 1 1 1 1 0 1 2 0 0 3 2 2 1 1 1 1 1 2 2 1 1 1 2 2 1 3 4 3 2 4 4 2 3 3 4 3 1 4 3 4 5 0 4 6 7 7 6 7 10 11 12
3 2 3 4 5 4 4 3 3 2 0 1 2 1 2 1 0 1 0 1 1 1 1 0 0 1 1 0 1 2 1 1 3 3 0 1 1 1 1 1 1 0 1 1 1 0 3 1 2 1 1 1 2 1 1 3 1 1 1 1 1 1 3 4 2 2 1 4 2 2 4 4 4 2 3 2 1 5 9 12 11 13 15 14 12 13 13 13
1 1 2 5 6 5 4 4 3 2 2 2 1 1 2 0 0 1 0 1 0 0 1 1 1 1 1 1 1 2 2 1 2 3 1 1 1 1 1 1 1 1 2 2 2 1 3 3 2 1 1 3 1 1 2 3 3 1 1 1 1 1 1 1 3 1 3 6 3 2 6 5 3 2 1 5 9 12 13 13 14 17 19 18 16 16 17 17
0 2 3 5 6 4 4 4 3 2 2 2 0 2 1 0 1 1 0 1 1 0 1 1 1 1 1 1 1 1 3 3 1 1 2 1 0 1 1 1 1 1 2 2 2 1 2 4 1 1 0 2 1 3 1 3 2 2 0 1 0 3 2 1 2 4 4 7 5 3 4 5 4 2 3 6 9 11 12 12 15 18 19 18 17 18 19 18
1 0 2 4 5 4 3 3 3 3 2 1 1 1 0 0 0 0 1 1 1 1 1 1 1 1 1 1 1 1 1 2 2 1 1 1 0 1 1 1 1 1 1 2 2 1 1 2 1 1 1 1 1 3 2 2 3 1 1 1 1 2 3 1 1 2 3 6 7 3 3 3 3 2 3 5 7 10 12 12 14 17 18 17 17 17 17 17
0 0 0 3 4 3 2 3 3 3 2 1 1 1 0 1 1 1 1 1 1 1 1 1 1 1 0 1 1 1 1 1 1 1 1 1 1 2 3 3 1 2 1 1 1 1 1 1 3 1 2 3 2 2 1 0 2 2 3 2 1 1 1 2 2 1 2 6 6 5 6 3 2 2 3 6 7 8 12 15 15 16 19 19 17 17 17 17
1 0 1 4 3 1 2 3 3 2 1 0 1 1 1 1 1 1 0 0 0 1 1 0 1 0 0 0 0 0 0 1 1 2 2 1 1 1 3 3 2 1 1 2 1 1 1 2 3 2 3 3 0 2 2 3 2 1 3 2 1 2 1 4 4 1 0 4 4 4 8 6 0 2 3 5 7 10 15 17 17 17 20 20 18 18 19 18
1 0 2 4 3 0 2 2 2 0 0 0 0 0 0 1 1 1 0 1 1 0 0 1 1 1 0 0 0 1 1 2 2 2 2 1 1 2 2 1 3 2 1 1 0 1 1 1 3 5 5 1 2 1 2 3 2 1 1 1 1 1 2 5 5 2 1 2 1 1 6 5 0 4 3 6 9 13 16 18 18 19 19 19 19 20 20 19
1 1 2 6 4 0 2 1 0 0 0 0 1 0 0 0 1 1 1 2 1 0 0 1 0 0 0 1 0 2 2 2 2 1 1 1 0 1 1 3 3 2 2 1 0 1 1 1 2 6 4 2 2 2 1 1 1 1 1 1 1 0 0 3 3 2 2 4 2 4 6 3 3 4 3 8 12 14 15 18 20 19 17 19 20 20 20 20
0 1 1 6 5 1 1 0 1 0 0 0 0 1 0 1 1 0 1 1 1 1 1 1 1 1 1 1 0 1 2 2 1 1 0 1 0 2 0 3 3 1 0 1 1 0 2 1 1 5 5 0 2 1 2 2 1 2 1 2 1 2 3 1 1 1 3 5 6 7 8 3 1 4 9 12 15 17 17 17 18 18 18 19 19 19 20 20
1 0 1 5 7 4 1 1 1 1 1 1 0 0 0 0 1 1 1 0 1 0 1 2 1 1 2 1 1 1 1 2 1 1 1 1 1 2 1 3 3 1 1 3 3 2 2 1 1 4 5 4 4 3 2 2 1 1 1 2 2 2 2 1 2 2 4 3 4 7 9 9 10 13 15 15 17 18 19 19 18 17 18 19 19 20 20 18
0 0 1 3 5 5 2 0 1 1 2 1 1 0 0 1 1 0 1 1 1 1 1 1 1 1 1 1 2 1 1 2 1 1 1 2 1 1 1 3 2 1 2 4 3 1 1 1 3 6 7 7 7 4 2 2 4 6 4 2 2 2 2 2 2 3 3 3 4 8 11 16 18 18 17 16 18 19 19 20 20 19 19 19 20 20 18 15
0 1 0 1 1 2 1 1 1 1 1 1 1 1 0 1 0 1 0 1 1 1 0 1 1 2 2 1 1 1 1 1 1 1 2 2 1 1 1 1 1 3 5 3 1 1 1 2 2 4 8 9 8 7 1 0 6 9 7 5 1 3 3 4 5 6 4 4 6 7 10 16 19 19 18 17 18 20 20 21 20 20 19 20 21 20 17 16
0 1 0 0 0 0 1 1 1 1 1 1 0 1 0 1 1 0 1 1 1 1 1 1 1 3 2 1 0 1 1 1 2 2 1 1 1 0 1 1 1 3 4 1 0 1 2 3 1 0 7 9 8 9 6 2 4 6 5 6 3 3 5 5 7 8 5 5 11 14 16 19 18 17 17 17 18 20 21 21 20 19 21 23 22 20 19 21
1 1 1 1 1 1 1 1 0 2 2 1 0 1 1 1 1 0 1 1 1 0 1 1 1 2 3 2 1 2 2 2 2 2 1 1 1 1 0 1 1 2 2 0 2 1 2 2 2 1 7 10 6 5 3 1 2 2 2 4 3 2 6 7 7 9 8 10 15 18 21 19 13 12 15 17 17 18 18 19 20 21 23 24 22 20 22 25
0 2 1 1 2 2 1 1 1 1 1 1 0 0 1 2 1 0 0 1 0 1 1 2 0 1 1 2 4 4 2 1 3 2 2 1 1 1 1 0 2 1 1 1 1 1 1 1 2 1 5 6 1 2 1 1 3 2 1 3 4 2 3 3 4 7 8 10 14 16 17 13 8 12 16 16 15 16 17 20 22 22 23 23 22 22 25 27
1 1 2 2 2 0 1 0 0 0 1 0 0 1 1 1 1 0 0 0 1 1 3 2 2 2 1 2 6 5 2 1 3 2 1 1 1 0 0 1 1 2 1 1 0 1 1 1 1 1 5 4 2 1 3 1 1 2 4 8 8 5 4 3 5 8 9 12 14 13 10 8 10 15 18 17 17 17 19 21 22 21 23 23 21 22 26 27
2 1 1 2 1 0 1 1 1 1 0 0 0 1 0 0 0 1 1 1 1 1 1 1 2 1 1 2 4 3 2 2 2 2 1 0 2 3 2 3 3 1 2 2 0 1 0 1 0 1 4 3 1 5 5 0 3 3 4 7 7 5 6 7 8 11 13 11 10 9 8 11 15 17 19 21 22 21 19 20 20 22 22 20 20 25 27 26
Wind_Direction
105 109 111 118 122 116 112 112 110 104 95 89 84 79 78 89 84 84 86 72 59 39 34 38 34 7 353 353 13 44 46 55 57 48 46 13 348 347 341 340 342 6 36 36 35 31 56 50 36 40 62 51 16 354 34 24 2 278 230 283 265 171 178 173 174 168 54 125 156 171 190 208 188 168 175 183 220 231 234 236 230 230 239 238 236 225 244 268
101 109 116 123 126 122 117 115 113 103 90 80 73 68 57 64 58 65 89 63 59 40 42 49 50 40 20 356 322 15 56 54 51 41 24 360 355 356 351 353 353 17 36 43 44 42 48 39 30 37 58 55 1 5 29 355 355 357 137 272 318 75 82 19 140 137 30 104 145 165 190 216 205 152 161 221 224 206 241 240 223 238 242 235 232 231 237 219
95 103 115 127 132 130 125 121 116 102 85 71 63 56 39 23 355 20 94 71 47 3 21 34 40 36 26 19 322 269 78 52 47 20 356 358 359 359 358 0 5 26 49 69 70 74 72 65 58 42 57 61 20 14 32 7 347 6 265 284 62 67 87 54 80 114 13 80 143 157 170 217 211 138 160 231 245 210 235 236 214 229 236 231 220 209 208 204
85 94 110 128 138 139 134 130 120 101 78 69 59 39 16 4 343 340 306 257 332 336 336 347 6 9 12 13 360 196 202 61 43 345 345 358 356 356 358 1 10 39 88 107 97 89 82 73 66 46 63 77 37 24 30 7 339 78 318 346 75 110 106 74 348 89 28 13 144 141 140 215 196 162 197 221 248 237 236 233 225 229 232 230 209 188 191 201
70 78 104 125 139 144 143 142 129 109 83 66 48 25 3 358 359 346 339 303 317 326 320 322 336 345 2 10 12 148 206 214 13 344 350 356 351 351 353 359 9 47 114 131 111 88 75 61 68 53 55 59 18 43 39 8 341 68 33 22 71 297 76 71 21 95 98 65 127 148 163 199 142 194 220 215 235 249 249 228 230 236 240 235 192 182 188 201
66 66 89 117 137 145 147 148 128 112 95 60 28 15 5 6 11 358 352 333 328 322 314 319 330 337 358 24 44 95 141 92 355 347 353 352 348 346 344 352 12 69 131 155 121 79 65 41 63 51 59 58 23 51 43 357 305 35 84 83 35 330 55 76 69 123 180 149 157 171 178 149 167 230 224 220 236 246 51 80 241 250 252 250 163 185 192 204
71 65 75 96 124 136 136 135 116 105 93 51 15 9 14 20 18 14 9 357 343 331 329 341 347 340 343 60 66 69 74 55 352 349 359 355 347 344 344 355 10 66 156 194 114 97 88 51 79 78 84 90 45 65 33 347 6 32 107 115 28 46 72 45 101 158 284 237 172 136 206 192 218 251 239 230 240 242 206 98 46 307 266 210 197 200 203 211
78 72 72 79 101 119 125 123 112 100 78 37 12 8 19 32 37 42 42 43 21 356 7 10 4 357 19 116 81 63 65 12 347 355 8 6 4 3 5 25 32 104 105 96 89 114 111 52 98 162 76 74 68 74 14 326 66 52 107 133 115 89 80 69 122 149 300 283 39 213 235 222 225 300 292 251 248 242 223 166 179 257 233 213 217 216 213 218
81 80 76 78 90 107 118 113 104 92 61 26 15 16 27 51 61 52 45 46 26 11 20 11 15 25 85 108 103 70 49 352 346 358 14 18 27 35 40 45 58 111 83 72 71 76 125 103 141 194 112 99 136 78 337 294 55 59 108 134 139 108 91 125 162 142 111 241 122 250 255 230 152 313 274 256 261 253 220 203 216 223 233 225 220 224 218 221
84 79 79 79 82 92 100 97 94 82 49 19 18 37 57 77 68 41 32 37 26 24 14 353 11 27 93 103 93 92 38 2 354 357 18 25 35 48 48 49 67 90 76 65 59 49 47 147 139 130 114 107 103 57 320 319 66 94 107 112 109 101 152 142 175 127 306 242 163 274 279 250 128 284 265 252 309 231 202 213 223 225 238 236 227 227 222 227
85 77 75 75 76 80 83 81 78 57 21 360 15 74 106 126 56 17 16 25 20 27 13 358 17 51 88 84 75 92 35 360 4 3 13 27 39 47 47 49 64 80 83 69 59 69 92 121 130 129 122 121 114 75 38 80 106 100 114 132 110 71 199 191 231 107 288 252 140 288 284 245 136 221 250 242 100 148 207 225 222 224 237 239 234 232 226 232
84 77 71 67 68 72 74 60 37 18 10 6 31 80 125 172 7 357 6 6 7 22 14 26 72 84 81 72 61 77 23 360 10 12 8 31 48 51 50 52 60 73 90 85 70 86 102 128 129 85 48 164 150 84 96 133 105 101 140 188 152 238 215 192 187 78 267 287 31 294 284 234 172 222 243 191 103 154 226 240 231 229 237 239 238 237 232 236
85 77 70 60 56 65 70 52 21 15 26 33 43 64 117 233 325 346 2 356 6 22 9 31 88 112 81 70 52 53 21 15 354 6 16 42 59 58 57 58 64 70 84 92 89 90 104 137 108 84 55 110 115 98 131 132 12 137 255 334 269 250 215 149 96 109 223 302 338 289 298 261 189 220 232 117 135 180 239 247 240 233 234 239 237 239 240 239
90 83 72 53 45 58 64 55 42 26 23 35 50 71 181 287 308 342 360 358 9 21 18 37 80 104 77 90 76 43 23 18 6 8 25 47 73 67 64 62 65 68 73 82 85 85 94 100 95 95 58 36 100 147 130 109 360 201 302 318 283 296 28 115 116 192 212 113 308 266 282 287 233 211 192 125 178 214 258 254 244 238 232 236 237 239 245 242
87 83 69 50 43 58 64 66 51 17 4 14 54 121 286 290 307 341 352 2 16 35 52 43 62 99 81 95 130 38 25 22 22 16 21 38 56 68 74 68 63 63 67 73 78 76 76 82 80 84 66 22 152 150 103 91 72 20 302 251 137 308 292 118 112 265 274 107 241 260 270 285 294 239 131 113 184 211 254 258 250 246 237 236 238 240 248 250
76 66 62 54 48 55 54 57 41 12 354 3 73 103 325 314 311 305 337 5 16 28 25 35 58 100 104 89 128 45 28 19 10 5 10 29 40 52 85 76 58 56 66 59 61 56 46 61 65 35 85 177 180 111 15 214 166 105 295 305 308 281 303 348 109 83 326 98 210 241 272 287 290 256 120 140 189 212 249 259 255 250 247 244 244 247 253 261
69 54 61 61 49 46 36 34 44 18 3 30 94 102 61 38 355 308 280 299 320 356 20 69 78 91 94 85 126 45 2 352 352 355 1 17 35 52 71 79 40 28 58 39 36 34 26 49 110 282 72 88 96 56 289 291 302 108 229 289 275 257 291 300 139 100 13 255 234 230 249 270 272 269 248 192 194 228 253 262 261 257 256 252 252 258 262 268
74 63 68 57 34 28 20 30 79 56 39 70 100 115 103 66 31 14 311 278 273 299 56 64 65 99 77 76 82 349 317 322 341 348 356 1 24 49 56 60 11 345 19 7 27 27 6 20 208 161 100 132 152 210 285 332 327 315 296 289 304 268 243 268 281 71 25 259 256 252 252 269 275 279 279 249 208 232 258 266 267 267 264 263 264 266 268 269
92 88 80 51 18 11 314 259 252 201 162 122 103 255 242 291 13 37 35 35 4 256 131 32 5 180 68 51 333 331 308 324 343 354 0 358 358 43 45 41 29 20 14 242 32 29 347 350 177 208 180 164 91 324 310 11 358 306 303 295 298 290 273 276 295 58 13 285 265 258 265 278 284 287 291 284 244 243 264 270 269 270 267 266 267 265 267 266
111 105 96 46 27 4 309 280 274 235 204 218 312 301 258 302 297 28 37 41 52 10 340 20 39 64 66 45 334 328 298 316 360 14 7 356 352 42 28 21 44 66 39 293 12 34 311 262 219 279 30 98 90 73 76 80 77 137 241 284 271 275 288 292 16 86 60 294 270 259 281 285 286 289 295 300 284 262 269 269 267 267 261 262 262 263 265 263
116 104 89 51 34 5 334 303 283 234 220 261 339 350 170 100 8 159 41 45 68 360 360 24 22 12 47 357 346 350 281 225 276 17 11 1 343 285 355 19 30 50 42 306 301 352 247 265 268 63 71 96 104 101 101 108 87 56 255 284 277 255 274 297 72 122 122 315 280 289 303 287 285 296 305 312 298 279 283 278 276 277 270 266 260 264 266 266
113 103 93 70 49 24 359 322 273 224 222 285 356 51 135 167 147 132 128 126 78 4 3 29 350 3 43 289 4 9 290 241 273 14 8 358 347 345 360 39 24 10 42 287 259 252 245 248 82 88 106 101 100 115 109 99 104 293 244 274 286 270 275 284 101 139 173 273 293 339 320 289 289 304 318 335 316 299 310 287 285 292 278 264 256 261 270 275
114 108 95 69 48 30 15 5 208 189 210 322 9 110 114 115 148 147 116 115 76 5 357 16 18 17 25 71 14 3 47 31 308 15 2 351 15 28 342 67 59 103 47 341 281 287 287 77 90 120 152 124 112 123 122 114 193 226 241 273 285 332 317 277 100 20 266 254 289 306 287 278 290 308 4 65 6 287 287 270 266 267 262 262 268 271 269 271
116 104 73 48 36 23 21 41 83 107 84 60 86 119 124 109 126 144 106 75 59 33 12 348 256 360 20 33 1 358 95 69 299 348 355 356 81 278 346 78 76 187 102 27 255 263 295 64 106 164 188 165 148 145 177 241 263 223 220 250 277 305 294 272 322 321 288 236 271 298 275 254 280 20 339 93 198 269 268 271 261 241 245 258 270 267 254 252
131 100 49 30 18 9 20 57 66 71 67 83 106 108 110 99 82 117 119 50 360 60 325 247 196 136 83 5 358 17 137 91 4 325 347 5 29 260 106 91 284 190 118 105 234 263 30 82 175 168 157 170 176 201 199 230 283 261 215 233 274 305 281 281 312 322 299 221 101 328 306 250 117 9 313 357 347 313 137 265 274 233 228 245 257 259 244 243
175 153 29 8 1 6 25 76 47 51 44 65 126 119 71 65 53 59 77 68 142 293 317 198 180 12 39 352 1 65 169 104 41 347 358 18 10 262 142 141 335 64 138 146 246 281 110 118 215 180 157 159 199 251 198 185 268 297 176 182 197 272 282 294 312 319 305 305 16 346 298 296 317 357 9 350 329 320 285 258 281 254 219 234 253 272 276 283
203 226 338 352 355 8 32 189 356 13 354 296 197 190 105 64 52 47 34 360 142 231 328 252 268 355 10 335 342 258 231 354 69 34 16 13 8 237 216 160 160 97 148 200 281 165 124 146 189 177 166 184 228 257 180 176 243 298 118 104 91 274 288 295 292 274 289 306 308 193 272 283 296 19 96 319 321 352 20 10 325 360 8 338 318 319 321 323
220 255 302 326 335 351 9 22 5 10 335 266 228 225 256 311 356 358 275 302 39 92 19 20 155 21 22 318 2 34 331 336 311 52 9 6 30 120 256 213 180 116 127 236 273 80 124 179 190 176 182 221 237 340 157 183 233 13 122 74 343 298 289 255 259 260 279 296 236 143 143 262 283 22 122 248 13 22 10 15 19 13 9 348 333 333 325 316
231 264 291 305 318 338 355 6 358 269 306 277 223 227 311 311 302 327 188 238 345 102 49 12 190 357 353 269 28 42 10 347 2 347 337 17 40 49 76 86 119 107 108 244 274 349 83 239 216 192 207 240 145 58 162 194 227 73 130 180 162 158 208 185 255 246 189 263 228 112 30 291 302 337 90 29 19 13 353 359 15 7 352 332 332 346 344 340
239 264 288 302 308 322 332 344 334 271 285 246 213 253 316 310 228 125 249 252 19 71 252 314 266 324 354 314 331 23 354 360 353 327 325 139 38 52 87 28 120 131 144 249 259 142 84 351 291 234 255 345 81 73 20 205 18 103 198 251 217 173 154 157 206 208 216 237 127 74 356 318 313 321 65 53 41 8 336 347 6 5 357 353 359 2 357 352
273 281 292 302 296 297 312 329 311 267 229 201 207 277 304 314 106 136 251 247 67 14 260 19 332 1 24 351 310 11 11 358 341 331 28 108 347 73 123 234 186 187 225 209 214 161 125 203 202 83 347 32 125 130 125 170 268 244 247 281 278 238 172 172 166 180 255 263 98 65 329 302 274 261 27 41 80 80 318 337 358 1 357 356 357 355 351 342
311 306 305 308 292 299 309 250 264 238 156 158 180 305 294 230 240 211 283 299 353 352 25 30 348 20 25 296 286 352 329 347 10 12 34 5 309 83 32 301 333 276 275 142 206 224 188 194 104 84 92 330 234 209 161 172 193 238 260 296 301 304 284 267 268 219 266 19 98 58 345 277 251 260 332 2 40 36 332 337 358 355 351 350 350 343 335 325
2 352 346 348 320 299 290 242 251 158 135 129 129 43 76 125 237 187 293 312 347 15 33 360 325 356 327 288 306 341 279 278 16 19 56 355 308 65 27 343 324 284 283 357 329 296 256 131 124 170 146 49 255 246 248 185 182 244 285 312 301 320 315 296 304 285 286 47 109 25 346 272 259 265 4 49 69 45 348 342 338 333 338 335 332 319 308 312
30 21 15 38 59 80 88 64 108 130 129 116 73 41 30 260 238 156 269 285 324 14 50 311 320 318 324 342 341 317 252 137 16 339 285 359 272 261 139 180 277 284 233 269 306 306 277 253 142 174 118 17 234 273 337 338 284 294 15 326 281 306 299 292 315 304 301 342 127 229 298 241 247 124 153 156 87 89 238 203 224 272 299 293 297 307 317 330
40 35 36 61 66 68 76 78 93 114 139 103 59 62 227 250 238 192 257 286 340 339 127 141 310 294 108 56 9 354 307 75 23 338 301 330 272 273 62 143 194 219 214 260 340 119 258 263 59 42 340 310 215 76 4 299 256 100 91 279 269 341 291 277 311 317 314 321 223 209 234 236 262 130 160 184 146 146 95 17 8 358 356 332 327 338 340 341
44 35 35 49 44 41 52 58 71 76 76 83 65 82 215 254 300 184 223 21 46 298 276 202 255 303 318 360 56 56 24 328 349 341 241 213 269 242 42 61 82 8 360 302 279 150 270 259 90 101 171 57 356 20 11 317 319 137 212 262 87 14 300 273 285 105 193 273 243 216 250 252 283 276 163 162 70 45 17 9 5 1 356 349 346 347 342 342
39 52 42 33 24 22 31 39 65 78 64 90 112 227 238 289 24 194 360 360 277 284 308 292 355 354 311 296 4 34 348 314 353 346 309 224 256 168 133 70 66 7 27 325 260 132 296 278 113 136 154 88 360 279 85 25 334 264 236 57 96 240 284 263 278 286 250 265 249 210 257 273 294 285 28 17 9 11 4 358 359 359 353 348 346 344 342 343
70 82 58 26 13 14 30 42 72 87 69 80 195 258 248 105 11 314 360 335 280 293 268 253 340 18 242 266 335 32 339 335 24 352 299 258 147 131 86 66 87 31 26 319 286 77 293 279 85 80 267 92 130 239 155 88 22 345 313 86 360 261 248 164 268 302 295 281 271 221 258 274 234 215 360 6 7 360 351 354 359 356 350 345 341 340 340 340
220 104 45 14 5 12 37 53 68 69 73 114 239 259 223 241 345 360 335 307 272 228 238 251 327 9 168 210 317 33 5 339 360 345 287 278 82 96 47 10 117 91 15 326 309 355 268 286 309 140 168 12 171 218 235 128 102 66 197 190 46 289 279 281 279 295 284 282 286 281 294 283 201 166 2 9 13 356 349 355 356 352 346 341 338 337 337 336
155 284 353 3 5 23 57 62 59 53 69 143 231 180 120 259 175 122 311 286 231 215 250 210 202 282 238 132 318 9 49 314 277 262 258 301 343 81 56 5 41 111 324 309 286 266 177 242 276 165 165 271 242 192 272 180 147 176 198 204 176 174 276 297 248 224 274 281 288 283 282 288 141 127 24 25 14 356 356 356 352 347 342 337 337 337 335 334
79 54 319 353 360 57 78 55 50 41 73 131 234 196 151 219 165 133 290 224 217 274 263 191 145 306 10 53 67 115 237 248 219 246 251 205 285 40 60 8 345 46 253 228 207 245 220 223 265 277 257 264 319 65 330 310 308 259 239 238 215 178 239 275 259 164 238 271 284 290 285 292 108 118 60 37 12 2 1 355 347 342 338 335 336 336 334 333
87 212 327 357 356 159 93 58 45 10 213 122 329 258 180 194 177 127 131 183 233 298 70 56 62 105 125 360 62 144 242 252 198 223 251 212 335 15 57 340 303 294 266 257 265 339 300 264 263 270 271 300 38 35 321 315 320 329 316 347 113 180 242 269 279 308 211 247 321 295 271 281 131 121 76 28 12 6 360 352 344 337 333 332 333 333 333 332
106 204 20 19 11 108 84 57 340 360 48 360 344 341 36 191 173 140 187 199 208 360 61 78 119 129 71 27 80 178 212 234 203 180 255 259 12 39 328 313 296 265 249 263 48 112 224 251 263 267 266 117 125 180 197 280 241 217 71 103 184 201 15 287 296 339 275 249 250 265 261 251 137 132 49 17 9 359 353 348 340 332 329 331 331 332 331 330
74 208 18 12 10 116 138 149 185 54 312 267 181 136 180 258 202 180 224 212 195 175 125 72 70 62 71 77 238 197 205 240 232 104 48 265 131 112 341 315 299 260 246 311 11 115 225 217 268 291 297 265 151 183 194 192 208 236 157 122 180 81 80 65 149 116 266 244 231 259 268 247 198 323 341 355 355 349 347 343 335 331 330 329 330 330 328 328
91 122 296 357 26 68 112 201 156 145 195 224 266 169 142 191 185 292 285 114 54 255 91 61 27 76 97 149 202 197 221 248 269 23 34 257 220 114 63 330 310 311 349 325 328 305 268 265 232 282 301 299 303 328 321 321 342 269 180 152 192 155 134 222 248 236 255 232 207 245 271 289 303 315 327 339 344 343 339 335 333 331 329 330 329 327 326 330
172 61 292 336 30 60 68 345 78 122 155 192 258 231 181 143 131 328 277 128 77 61 71 85 170 154 124 190 238 236 221 213 242 333 296 244 241 102 40 341 344 18 337 309 305 309 304 273 243 250 257 270 299 334 52 10 305 292 295 275 197 148 155 220 253 255 272 283 247 238 261 286 301 313 325 337 341 338 332 331 332 330 331 332 328 325 328 334
180 146 20 308 22 54 68 48 27 63 129 240 233 154 252 277 156 79 343 12 71 86 71 119 177 202 161 146 251 258 220 183 203 279 248 238 280 96 92 323 335 338 327 299 269 46 280 258 248 249 252 262 296 314 331 180 280 282 292 292 233 143 159 190 222 255 295 310 283 264 267 283 300 315 328 338 338 333 331 331 332 331 332 330 326 327 332 333
80 151 84 20 197 111 70 38 37 74 65 12 212 152 204 296 287 150 67 43 91 200 239 155 185 225 194 134 180 249 269 226 209 220 217 240 304 230 144 144 248 321 326 310 52 19 251 265 23 36 269 275 289 291 284 260 262 264 272 288 290 159 176 197 234 261 274 273 281 293 297 295 301 314 328 338 335 331 330 329 331 331 328 327 327 330 332 334
70 118 62 353 33 116 53 350 104 114 78 54 127 196 196 216 260 290 113 127 122 92 265 240 235 217 191 175 203 235 251 246 250 255 200 172 246 241 212 136 144 331 322 84 54 17 227 258 68 100 286 294 297 297 306 186 234 245 253 295 319 206 211 220 248 270 265 254 269 289 295 295 302 322 331 334 332 329 328 329 331 329 327 326 327 329 333 334
202 159 143 48 74 91 27 335 168 133 78 36 300 156 170 201 229 341 162 212 193 119 200 241 223 111 155 186 209 232 242 253 291 282 182 175 255 229 240 258 131 85 2 58 62 360 264 304 76 106 287 297 355 90 69 242 259 249 109 17 4 337 246 226 259 283 278 268 276 288 290 293 322 338 331 329 330 331 333 334 331 328 327 326 324 329 333 332
160 146 150 120 98 12 311 76 127 142 104 48 247 157 175 206 219 252 131 360 341 176 193 208 141 109 67 188 220 251 298 337 300 301 184 243 302 360 24 346 160 151 113 100 360 352 321 274 96 54 300 290 121 96 316 305 204 157 65 24 8 3 358 329 299 301 298 295 299 301 299 312 334 335 330 328 331 335 338 335 328 325 324 322 324 332 332 329
144 114 146 118 93 312 318 70 54 6 47 28 65 133 162 149 195 246 192 108 24 27 233 224 144 149 255 214 225 274 6 17 334 9 24 332 62 60 55 62 60 83 150 148 155 360 294 249 147 15 296 274 46 334 320 165 164 156 79 30 3 357 354 337 320 312 304 304 313 315 317 327 333 335 332 330 333 338 339 334 325 321 321 323 329 332 329 328